Location: St. Louis
(38.6270°N, 90.1994°W)
Time: 10:33:42
(UTC-06:00)

Altair - Pass Details

Date: 06 December 2021
Orbit: 1501 x 1683 km, 47.2° (Epoch: 25 January)

Event Time Altitude Azimuth Distance (km) Brightness Sun altitude
Rises 14:17:59 0° 228° (SW) 4,831 11.6 19.9°
Reaches altitude 10° 14:21:08 10° 226° (SW) 3,824 11.7 19.5°
Maximum altitude 14:30:47 75° 144° (SE) 1,613 8.0 18.4°
Drops below altitude 10° 14:40:06 10° 61° (ENE) 3,697 9.0 17.2°
Sets 14:43:06 0° 60° (ENE) 4,665 9.5 16.8°
